Location: Bruderhein
(53.8035°N, 112.9265°W)
Time: 06:13:52
(UTC+00:00)

ISS - Visible Passes

Search period start: 28 November 2021 00:00
Search period end: 08 December 2021 00:00
Orbit: 417 x 423 km, 51.6° (Epoch: 28 November)

Date Brightness Start Highest point End Pass type
(mag) Time Alt. Az. Time Alt. Az. Time Alt. Az.
28 Nov -3.5 01:23:27 10° WSW 01:26:48 59° S 01:27:25 48° SE visible
28 Nov -0.3 03:00:10 10° W 03:00:24 12° W 03:00:24 12° W visible
29 Nov -3.2 00:36:22 10° WSW 00:39:42 53° S 00:42:07 17° E visible
29 Nov -2.0 02:13:00 10° W 02:15:06 32° WSW 02:15:06 32° WSW visible
30 Nov -3.4 01:25:51 10° W 01:29:13 59° S 01:29:49 49° SE visible
30 Nov -0.2 03:02:42 10° W 03:02:47 11° W 03:02:47 11° W visible
01 Dec -3.4 00:38:42 10° W 00:42:04 61° S 00:44:32 17° ESE visible
01 Dec -1.8 02:15:28 10° W 02:17:32 28° WSW 02:17:32 28° WSW visible
01 Dec -3.2 23:51:32 10° WSW 23:54:54 59° S 23:58:15 10° E visible
02 Dec -3.0 01:28:14 10° W 01:31:32 46° SSW 01:32:18 38° SSE visible
03 Dec -3.1 00:41:02 10° W 00:44:22 54° S 00:47:08 14° ESE visible
03 Dec -1.4 02:18:01 10° W 02:20:07 22° SW 02:20:07 22° SW visible
03 Dec -3.2 23:53:49 10° W 23:57:11 59° S 00:00:32 10° ESE visible
04 Dec -2.1 01:30:41 10° W 01:33:42 30° SSW 01:35:03 22° SSE visible
05 Dec -2.4 00:43:22 10° W 00:46:34 38° SSW 00:49:44 10° SE visible
05 Dec -0.8 02:21:12 10° WSW 02:22:43 12° SW 02:23:07 12° SSW visible
05 Dec -2.6 23:56:06 10° W 23:59:23 46° SSW 00:02:39 10° ESE visible
06 Dec -1.0 01:33:21 10° WSW 01:35:40 17° SW 01:37:58 10° S visible
07 Dec -1.3 00:45:49 10° W 00:48:34 23° SSW 00:51:19 10° SSE visible
